Location: Harwich
(41.7160°N, 69.9939°W)
Time: 09:26:01
(UTC+01:00)

X-37B - Pass Details

Date: 10 December 2022
Orbit: 277 x 277 km, 45.0° (Epoch: 01 November)

Event Time Altitude Azimuth Distance (km) Brightness Sun altitude
Rises 22:58:48 0° 252° (WSW) 1,908 6.5 -9.1°
Reaches altitude 10° 23:00:43 10° 254° (WSW) 1,098 4.5 -9.4°
Maximum altitude 23:03:10 79° 341° (NNW) 286 -0.1 -9.8°
Enters shadow 23:04:50 18° 67° (ENE) 776 1.4 -10.1°
